Zurück zum Katalog

FENGYUN 1C DEB

AktivPO
NORAD 30759·DEBRIS·🇨🇳 China

Gestartet May 10, 1999 von Taiyuan Satellite Launch Center

Loading…

Nächste Überflüge (nächste 24 Stunden)

TLE

AktuellSource: Space-Track

Epoche: Sep 14, 2026, 08:13 UTC

1 30759U 99025ATV 26257.34289826  .00006475  00000-0  13558-2 0  9999
2 30759  99.2694  40.9264 0007654  69.3353 320.9423 14.60122673 16711

Verfolge FENGYUN 1C DEB in Echtzeit mit AllMySat

Download on the App Store